Starlink 32773

operational
NORAD ID: 62571 Int'l Des: 2025-006 Owner: SPXS Country: US Constellation: starlink
LEOCIRCULAR

About Starlink 32773

Description loading...

Live Position

Loading 3D Globe...

Upcoming Passes

Altitude History

Altitude vs Time

uPlot chart will show altitude changes over time

Two-Line Element Set

1 62571U 25006T 25300.10015138 .00030892 00000-0 11277-2 0 9995
2 62571 43.0008 326.8687 0000932 265.9875 94.0870 15.27572082 44436
Epoch: Oct 27, 2025 • Age: 54 hours

Current Status

Altitude 485.1 km
Velocity 7.62 km/s
Sub-Earth Point -13.81°S, 18.07°W
Launch Date Jan 10, 2025
Age 0.7 years
Type internet

Technical Details

Classification Payload
Mass 730.00 kg
Dry Mass 700.00 kg
Total Mass 730.00 kg
Length 0.30 m
Diameter 4.10 m
Span 29.00 m
Shape Box + pan
Manufacturer SPXS
Bus Type Starlink V2M
Phase Status In Orbit
Owner/State SPXS/US

Large Constellations

Loading constellations...